Location: Frankfurt+(oder)
(51.7984°N, 12.2168°E)
Time: 07:38:09
(UTC+01:00)

ISS - Pass Details

Date: 15 November 2017
Orbit: 402 x 407 km, 51.6° (Epoch: 19 November)

Event Time Altitude Azimuth Distance (km) Brightness Sun altitude
Exits shadow 06:28:09 - 250° (WSW) 1,542 -1.4 -9.6°
Reaches altitude 10° 06:28:41 10° 241° (WSW) 1,454 -1.4 -9.5°
Maximum altitude 06:29:46 11° 222° (SW) 1,376 -1.4 -9.4°
Drops below altitude 10° 06:30:50 10° 202° (SSW) 1,451 -1.1 -9.2°
Sets 06:34:06 0° 167° (SSE) 2,304 0.5 -8.7°
